Weather Roundup
Issued by NWS Chicago, IL

Home | Current Version | Previous Version | Text Only | Print | Product List | Glossary On
Versions: 1 2 3 4 5 6 7 8 9 10 11 12 13 14 15 16 17 18 19 20 21 22 23 24 25 26 27 28 29 30 31 32 33 34 35 36 37 38 39 40 41 42 43 44 45 46 47 48 49 50
000
NZUS59 KLOT 260810
HRRLOT

CHICAGO AREA WEATHER ROUNDUP
NATIONAL WEATHER SERVICE CHICAGO/ROMEOVILLE IL
200 AM CST MON JAN 26 2015

NOTE: "FAIR" INDICATES FEW OR NO CLOUDS BELOW 12,000 FEET WITH NO
SIGNIFICANT WEATHER AND/OR OBSTRUCTIONS TO VISIBILITY.

* THESE STATIONS ARE NOT UNDER NWS QUALITY CONTROL. THEY ALSO MAY NOT
  REPORT WEATHER SUCH AS PRECIPITATION OR FOG.

ILZ005-006-012>014-019>023-260900-
NORTHEAST ILLINOIS

CITY           SKY/WX    TMP DP  RH WIND       PRES   REMARKS
OHARE          MOCLDY    24  15  68 NE12      29.98S WCI  13
MIDWAY         MOCLDY    25  17  72 NE7       29.99R WCI  17
AURORA           N/A     16  10  77 NW7       30.00S WCI   6
LANSING*       CLOUDY    23  17  77 NE7       29.99R WCI  15
JOLIET*        MOCLDY    20  16  84 CALM      30.00F
WAUKEGAN       CLOUDY    22  15  75 NE6       29.99S WCI  14
DUPAGE AIRPORT PTCLDY    16  11  80 NW6       29.99R WCI   7
WHEELING       CLOUDY    24  15  68 NE7       30.00F WCI  16
KANKAKEE*      CLOUDY    25  19  77 N7        29.99R WCI  17
MORRIS*        PTCLDY    19  16  87 N5        29.99S WCI  12
LEWIS AIRPORT* CLOUDY    20  16  83 NW6       29.99S WCI  12
NORTHERLY IS     N/A     24  16  71 N9          N/A  WCI  15
$$

WIZ051-052-058>065-066-070>072-260900-
SOUTHEAST WISCONSIN

CITY           SKY/WX    TMP DP  RH WIND       PRES   REMARKS
MILWAUKEE      MOCLDY    18  11  74 NW6       30.00F WCI  10
KENOSHA*       CLOUDY    17  12  80 NW5       29.99F WCI  10
RACINE*        CLOUDY    24  15  68 E6        30.01F WCI  17
BURLINGTON     CLEAR     11   8  89 NW5       29.99S WCI   3
WAUKESHA       CLEAR     12   9  85 W5        29.99F WCI   4
WEST BEND      PTCLDY    12   9  85 CALM      29.99S
$$

INZ001>003-010>013-019-020-260900-
NORTHWEST INDIANA

CITY           SKY/WX    TMP DP  RH WIND       PRES   REMARKS
GARY*          PTCLDY    24  13  64 NE8       30.00R WCI  15
MICHIGAN CITY* NOT AVBL
RENSSELAER*    NOT AVBL
VALPARAISO     CLEAR     15  10  80 N5        29.97R WCI   8
$$

LMZ740>746-260900-
SOUTHERN LAKE MICHIGAN

STATION/POSITION TIME  SKY/WX   TEMP WIND        PRES    VSBY
                                AIR  DIR/SP/G
                 (UTC)          (F)  (DEG/KT/KT) (MB)    (MI)
HARRISON CRIB    0800            24   40/  9/ 12   N/A
BURNHAM HARBOR   0800            24   40/  8/ 14   N/A
CALUMET HARBOR   0800            24   40/ 10/ 12   N/A
BURNS HARBOR     NOT AVBL
MICHIGAN CITY    0800            19   40/ 12/ 14   N/A
$$

ABBREVIATIONS USED IN REMARKS
   TC - TEMPERATURE IN CELSIUS
  WCI - WIND CHILL INDEX
   HX - HEAT INDEX
  VSB - VISIBILITY
$$


USA.gov is the U.S. government's official web portal to all federal, state and local government web resources and services.